Location: Pacheco
(37.9835°N, 122.0752°W)
Time: 10:26:05
(UTC+00:00)

Cosmos 1666 Rocket - Pass Details

Date: 13 April 2024
Orbit: 600 x 630 km, 82.5° (Epoch: 23 May)

Event Time Altitude Azimuth Distance (km) Brightness Sun altitude
Rises 12:37:06 0° 342° (NNW) 2,926 7.1 -11.7°
Reaches altitude 10° 12:39:31 10° 333° (NNW) 2,011 6.1 -11.3°
Maximum altitude 12:43:29 33° 270° (W) 1,065 4.3 -10.5°
Drops below altitude 10° 12:47:25 10° 206° (SSW) 1,986 5.7 -9.8°
Sets 12:49:47 0° 197° (SSW) 2,882 6.6 -9.4°
